Time,TemperatureF,DewpointF,PressureIn,WindDirection,WindDirectionDegrees,WindSpeedMPH,WindSpeedGustMPH,Humidity,HourlyPrecipIn,Conditions,Clouds,dailyrainin,SoftwareType,DateUTC
2013-11-08 00:13:00,35.0,32.0,30.19,SW,225,0.0,1.0,89,0.00,,,0.00,,2013-11-08 05:13:00,
2013-11-08 00:23:00,35.0,32.0,30.19,WNW,296,0.0,2.0,89,0.00,,,0.00,,2013-11-08 05:23:00,
2013-11-08 00:43:00,35.0,32.0,30.19,SW,234,0.0,1.0,90,0.00,,,0.00,,2013-11-08 05:43:00,
2013-11-08 00:54:00,34.0,31.0,30.19,SW,234,0.0,2.0,90,0.00,,,0.00,,2013-11-08 05:54:00,
2013-11-08 01:23:00,34.0,32.0,30.19,SW,232,0.0,2.0,91,0.00,,,0.00,,2013-11-08 06:23:00,
2013-11-08 01:42:00,35.0,33.0,30.18,SW,234,0.0,2.0,91,0.00,,,0.00,,2013-11-08 06:42:00,
2013-11-08 01:52:00,35.0,32.0,30.19,WSW,247,0.0,3.0,90,0.00,,,0.00,,2013-11-08 06:52:00,
2013-11-08 02:12:00,35.0,32.0,30.19,SW,236,0.0,5.0,89,0.00,,,0.00,,2013-11-08 07:12:00,
2013-11-08 02:22:00,34.0,31.0,30.20,North,11,0.0,4.0,88,0.00,,,0.00,,2013-11-08 07:22:00,
2013-11-08 02:42:00,34.0,31.0,30.19,WSW,256,0.0,3.0,89,0.00,,,0.00,,2013-11-08 07:42:00,
2013-11-08 02:52:00,34.0,31.0,30.20,SSE,153,0.0,3.0,90,0.00,,,0.00,,2013-11-08 07:52:00,
2013-11-08 03:12:00,34.0,31.0,30.20,SE,130,0.0,4.0,90,0.00,,,0.00,,2013-11-08 08:12:00,
2013-11-08 03:22:00,34.0,31.0,30.20,SW,219,0.0,2.0,90,0.00,,,0.00,,2013-11-08 08:22:00,
2013-11-08 03:42:00,34.0,31.0,30.20,NW,313,0.0,3.0,90,0.00,,,0.00,,2013-11-08 08:42:00,
2013-11-08 03:52:00,33.0,31.0,30.21,NNE,15,0.0,2.0,91,0.00,,,0.00,,2013-11-08 08:52:00,
2013-11-08 04:12:00,33.0,31.0,30.20,North,9,0.0,3.0,91,0.00,,,0.00,,2013-11-08 09:12:00,
2013-11-08 04:22:00,33.0,31.0,30.20,NW,319,0.0,2.0,92,0.00,,,0.00,,2013-11-08 09:22:00,
2013-11-08 04:43:00,32.0,30.0,30.21,WNW,283,0.0,2.0,92,0.00,,,0.00,,2013-11-08 09:43:00,
2013-11-08 04:53:00,32.0,30.0,30.21,West,281,0.0,1.0,92,0.00,,,0.00,,2013-11-08 09:53:00,
2013-11-08 05:12:00,32.0,30.0,30.22,WNW,287,0.0,2.0,92,0.00,,,0.00,,2013-11-08 10:12:00,
2013-11-08 05:23:00,32.0,30.0,30.22,WNW,288,0.0,1.0,93,0.00,,,0.00,,2013-11-08 10:23:00,
2013-11-08 05:43:00,32.0,30.0,30.23,West,279,0.0,1.0,93,0.00,,,0.00,,2013-11-08 10:43:00,
2013-11-08 05:53:00,31.0,29.0,30.24,West,278,0.0,1.0,93,0.00,,,0.00,,2013-11-08 10:53:00,
2013-11-08 06:12:00,31.0,29.0,30.24,West,278,0.0,1.0,93,0.00,,,0.00,,2013-11-08 11:12:00,
2013-11-08 06:22:00,31.0,29.0,30.24,West,278,0.0,1.0,93,0.00,,,0.00,,2013-11-08 11:22:00,
2013-11-08 06:42:00,31.0,29.0,30.25,West,281,0.0,1.0,93,0.00,,,0.00,,2013-11-08 11:42:00,
2013-11-08 06:52:00,31.0,29.0,30.26,WNW,286,0.0,1.0,94,0.00,,,0.00,,2013-11-08 11:52:00,
2013-11-08 07:11:00,31.0,29.0,30.26,NNE,15,0.0,1.0,94,0.00,,,0.00,,2013-11-08 12:11:00,
2013-11-08 07:21:00,31.0,29.0,30.27,NNE,13,0.0,1.0,94,0.00,,,0.00,,2013-11-08 12:21:00,
2013-11-08 07:42:00,30.0,28.0,30.27,NNE,13,0.0,0.0,94,0.00,,,0.00,,2013-11-08 12:42:00,
2013-11-08 07:52:00,30.0,28.0,30.28,NNE,13,0.0,1.0,94,0.00,,,0.00,,2013-11-08 12:52:00,
2013-11-08 08:11:00,30.0,28.0,30.29,NNE,13,0.0,1.0,94,0.00,,,0.00,,2013-11-08 13:11:00,
2013-11-08 08:21:00,31.0,29.0,30.29,NNE,13,0.0,1.0,94,0.00,,,0.00,,2013-11-08 13:21:00,
2013-11-08 08:42:00,31.0,29.0,30.29,NNE,13,0.0,0.0,94,0.00,,,0.00,,2013-11-08 13:42:00,
2013-11-08 08:52:00,33.0,32.0,30.29,NNE,13,0.0,1.0,95,0.00,,,0.00,,2013-11-08 13:52:00,
2013-11-08 09:11:00,34.0,32.0,30.30,WNW,296,0.0,2.0,92,0.00,,,0.00,,2013-11-08 14:11:00,
2013-11-08 09:22:00,35.0,33.0,30.31,SW,236,0.0,2.0,91,0.00,,,0.00,,2013-11-08 14:22:00,
2013-11-08 09:42:00,36.0,33.0,30.31,SW,225,0.0,3.0,90,0.00,,,0.00,,2013-11-08 14:42:00,
2013-11-08 09:52:00,37.0,34.0,30.32,West,269,0.0,2.0,87,0.00,,,0.00,,2013-11-08 14:52:00,
2013-11-08 10:11:00,39.0,35.0,30.32,West,273,0.0,2.0,85,0.00,,,0.00,,2013-11-08 15:11:00,
2013-11-08 10:22:00,40.0,36.0,30.32,SW,221,0.0,3.0,84,0.00,,,0.00,,2013-11-08 15:22:00,
2013-11-08 10:44:00,41.0,35.0,30.32,WNW,284,0.0,2.0,80,0.00,,,0.00,,2013-11-08 15:44:00,
2013-11-08 10:53:00,42.0,35.0,30.32,WSW,255,1.0,4.0,76,0.00,,,0.00,,2013-11-08 15:53:00,
2013-11-08 11:13:00,43.0,36.0,30.32,SW,221,1.0,3.0,75,0.00,,,0.00,,2013-11-08 16:13:00,
2013-11-08 11:23:00,43.0,35.0,30.32,West,265,0.0,5.0,72,0.00,,,0.00,,2013-11-08 16:23:00,
2013-11-08 11:42:00,44.0,34.0,30.31,NNE,24,0.0,4.0,68,0.00,,,0.00,,2013-11-08 16:42:00,
2013-11-08 11:53:00,45.0,35.0,30.32,SSW,210,0.0,4.0,68,0.00,,,0.00,,2013-11-08 16:53:00,
2013-11-08 12:22:00,45.0,34.0,30.32,NW,318,0.0,5.0,66,0.00,,,0.00,,2013-11-08 17:22:00,
2013-11-08 12:43:00,46.0,34.0,30.30,NNW,332,0.0,4.0,63,0.00,,,0.00,,2013-11-08 17:43:00,
2013-11-08 12:52:00,47.0,35.0,30.29,SW,216,1.0,4.0,64,0.00,,,0.00,,2013-11-08 17:52:00,
2013-11-08 13:12:00,46.0,33.0,30.28,SW,222,1.0,4.0,61,0.00,,,0.00,,2013-11-08 18:12:00,
2013-11-08 13:22:00,46.0,34.0,30.28,SW,232,1.0,4.0,62,0.00,,,0.00,,2013-11-08 18:22:00,
2013-11-08 13:43:00,46.0,34.0,30.27,NNW,333,1.0,4.0,63,0.00,,,0.00,,2013-11-08 18:43:00,
2013-11-08 13:52:00,46.0,34.0,30.27,ENE,57,0.0,6.0,62,0.00,,,0.00,,2013-11-08 18:52:00,
2013-11-08 14:12:00,46.0,34.0,30.27,SSW,208,1.0,6.0,63,0.00,,,0.00,,2013-11-08 19:12:00,
2013-11-08 14:22:00,47.0,34.0,30.26,SW,225,2.0,5.0,60,0.00,,,0.00,,2013-11-08 19:22:00,
2013-11-08 14:42:00,47.0,34.0,30.25,WSW,247,1.0,7.0,61,0.00,,,0.00,,2013-11-08 19:42:00,
2013-11-08 14:52:00,48.0,36.0,30.25,SW,223,1.0,4.0,62,0.00,,,0.00,,2013-11-08 19:52:00,
2013-11-08 15:12:00,48.0,34.0,30.24,SW,217,0.0,4.0,58,0.00,,,0.00,,2013-11-08 20:12:00,
2013-11-08 15:22:00,49.0,35.0,30.24,SSW,208,0.0,4.0,59,0.00,,,0.00,,2013-11-08 20:22:00,
2013-11-08 15:42:00,49.0,35.0,30.23,NNW,328,0.0,6.0,59,0.00,,,0.00,,2013-11-08 20:42:00,
2013-11-08 15:52:00,49.0,35.0,30.22,SW,217,0.0,4.0,58,0.00,,,0.00,,2013-11-08 20:52:00,
2013-11-08 16:12:00,48.0,34.0,30.22,SW,217,0.0,5.0,57,0.00,,,0.00,,2013-11-08 21:12:00,
2013-11-08 16:22:00,48.0,34.0,30.22,SE,140,1.0,3.0,59,0.00,,,0.00,,2013-11-08 21:22:00,
2013-11-08 16:44:00,47.0,34.0,30.22,SSW,198,0.0,3.0,61,0.00,,,0.00,,2013-11-08 21:44:00,
2013-11-08 16:54:00,47.0,34.0,30.22,South,188,1.0,4.0,60,0.00,,,0.00,,2013-11-08 21:54:00,
2013-11-08 17:13:00,47.0,34.0,30.22,SSW,213,0.0,4.0,61,0.00,,,0.00,,2013-11-08 22:13:00,
2013-11-08 17:24:00,46.0,35.0,30.21,SSW,196,0.0,3.0,64,0.00,,,0.00,,2013-11-08 22:24:00,
2013-11-08 17:43:00,45.0,35.0,30.21,SSE,161,0.0,3.0,67,0.00,,,0.00,,2013-11-08 22:43:00,
2013-11-08 17:53:00,44.0,35.0,30.21,South,186,0.0,1.0,71,0.00,,,0.00,,2013-11-08 22:53:00,
2013-11-08 18:12:00,43.0,34.0,30.21,South,186,0.0,1.0,71,0.00,,,0.00,,2013-11-08 23:12:00,
2013-11-08 18:22:00,43.0,35.0,30.21,South,186,0.0,0.0,73,0.00,,,0.00,,2013-11-08 23:22:00,
2013-11-08 18:43:00,42.0,35.0,30.20,South,186,0.0,1.0,76,0.00,,,0.00,,2013-11-08 23:43:00,
2013-11-08 18:53:00,42.0,35.0,30.20,South,180,0.0,2.0,77,0.00,,,0.00,,2013-11-08 23:53:00,
2013-11-08 19:12:00,41.0,35.0,30.20,SSE,165,0.0,1.0,78,0.00,,,0.00,,2013-11-09 00:12:00,
2013-11-08 19:22:00,42.0,35.0,30.19,SE,131,1.0,3.0,76,0.00,,,0.00,,2013-11-09 00:22:00,
2013-11-08 19:42:00,43.0,35.0,30.19,ESE,103,1.0,4.0,73,0.00,,,0.00,,2013-11-09 00:42:00,
2013-11-08 19:52:00,43.0,36.0,30.18,ESE,105,1.0,3.0,75,0.00,,,0.00,,2013-11-09 00:52:00,
2013-11-08 20:11:00,43.0,36.0,30.18,SE,124,1.0,3.0,77,0.00,,,0.00,,2013-11-09 01:11:00,
2013-11-08 20:22:00,43.0,35.0,30.17,SE,132,2.0,4.0,74,0.00,,,0.00,,2013-11-09 01:22:00,
2013-11-08 20:42:00,43.0,35.0,30.16,SE,129,2.0,4.0,74,0.00,,,0.00,,2013-11-09 01:42:00,
2013-11-08 20:52:00,43.0,35.0,30.16,SE,127,2.0,5.0,74,0.00,,,0.00,,2013-11-09 01:52:00,
2013-11-08 21:12:00,43.0,35.0,30.15,SE,130,2.0,5.0,74,0.00,,,0.00,,2013-11-09 02:12:00,
2013-11-08 21:22:00,43.0,35.0,30.14,SE,124,1.0,5.0,74,0.00,,,0.00,,2013-11-09 02:22:00,
2013-11-08 21:42:00,43.0,35.0,30.14,SSE,161,2.0,5.0,74,0.00,,,0.00,,2013-11-09 02:42:00,
2013-11-08 21:52:00,42.0,35.0,30.15,ESE,117,1.0,4.0,76,0.00,,,0.00,,2013-11-09 02:52:00,
2013-11-08 22:11:00,42.0,35.0,30.15,ESE,117,2.0,4.0,76,0.00,,,0.00,,2013-11-09 03:11:00,
2013-11-08 22:22:00,42.0,35.0,30.14,SE,134,1.0,4.0,75,0.00,,,0.00,,2013-11-09 03:22:00,
2013-11-08 22:44:00,42.0,34.0,30.14,ESE,113,2.0,6.0,74,0.00,,,0.00,,2013-11-09 03:44:00,
2013-11-08 22:54:00,42.0,34.0,30.13,ESE,113,2.0,8.0,74,0.00,,,0.00,,2013-11-09 03:54:00,
2013-11-08 23:13:00,42.0,35.0,30.13,SE,132,2.0,6.0,75,0.00,,,0.00,,2013-11-09 04:13:00,
2013-11-08 23:23:00,42.0,35.0,30.12,East,92,2.0,5.0,75,0.00,,,0.00,,2013-11-09 04:23:00,
2013-11-08 23:42:00,42.0,34.0,30.12,SSE,165,2.0,7.0,74,0.00,,,0.00,,2013-11-09 04:42:00,
2013-11-08 23:53:00,43.0,35.0,30.11,East,88,2.0,5.0,73,0.00,,,0.00,,2013-11-09 04:53:00,